KHB808 UHHH-UEEE

Flight info

Callsign KHB808
Flight time N/A
Altitude 34000
Route HAB DCT MOSOL DCT PESOM DCT FA DCT SELDA DCT ODANA DCT OTRUM
Aircraft IL62/H-SDFGHIM1RTUWXY/LB1

Departure

Time N/A
Airport Khabarovsk Novy Airport (UHHH)

Arrival

Time 2026-04-17 13:49
Airport Platon Oyunsky Yakutsk International Airport (UEEE)
Time Latitude Longitude Altitude Speed Heading
2026-04-17 11:43 49.38737 134.44284 22991 ft 389 kts 324°
2026-04-17 11:43 49.41057 134.42103 23658 ft 393 kts 324°
2026-04-17 11:43 49.43402 134.39894 24335 ft 397 kts 324°
2026-04-17 11:43 49.45768 134.37656 25024 ft 401 kts 323°
2026-04-17 11:44 49.48154 134.35401 25722 ft 405 kts 323°
2026-04-17 11:44 49.50588 134.33178 26443 ft 410 kts 328°
2026-04-17 11:44 49.53285 134.31651 27201 ft 416 kts 340°
2026-04-17 11:44 49.56101 134.30552 27898 ft 419 kts 341°
2026-04-17 11:45 49.58941 134.29498 28571 ft 422 kts 341°
2026-04-17 11:45 49.61806 134.28435 29243 ft 424 kts 341°
2026-04-17 11:45 49.64679 134.27351 29904 ft 425 kts 341°
2026-04-17 11:45 49.67552 134.26269 30549 ft 425 kts 341°
2026-04-17 11:46 49.70431 134.25185 31176 ft 426 kts 341°
2026-04-17 11:46 49.73323 134.24086 31617 ft 431 kts 341°
2026-04-17 11:46 49.76250 134.22980 32057 ft 434 kts 342°
2026-04-17 11:46 49.79193 134.21863 32504 ft 437 kts 342°
2026-04-17 11:47 49.82153 134.20739 32952 ft 439 kts 342°
2026-04-17 11:47 49.85124 134.19610 33398 ft 441 kts 342°
2026-04-17 11:47 49.88108 134.18469 33837 ft 442 kts 341°
2026-04-17 11:47 49.91106 134.17319 34119 ft 448 kts 342°
2026-04-17 11:48 49.94169 134.16144 34076 ft 460 kts 342°
2026-04-17 11:48 49.97289 134.14956 34013 ft 458 kts 342°
2026-04-17 11:48 50.03358 134.12615 33946 ft 445 kts 342°
2026-04-17 11:49 50.09367 134.10306 33926 ft 445 kts 342°
2026-04-17 11:49 50.15373 134.07986 33919 ft 445 kts 342°
2026-04-17 11:50 50.21376 134.05661 33917 ft 444 kts 342°
2026-04-17 11:50 50.27378 134.03332 33916 ft 444 kts 342°
2026-04-17 11:51 50.33382 134.00997 33915 ft 444 kts 342°
2026-04-17 11:51 50.39380 133.98658 33915 ft 444 kts 342°
2026-04-17 11:52 50.45377 133.96313 33915 ft 444 kts 342°
2026-04-17 11:52 50.51373 133.93962 33915 ft 444 kts 342°
2026-04-17 11:53 50.56357 133.92003 33914 ft 444 kts 341°
2026-04-17 11:53 50.62354 133.89641 33914 ft 444 kts 341°
2026-04-17 11:54 50.68330 133.87271 33938 ft 441 kts 339°
2026-04-17 11:54 50.74280 133.84924 33949 ft 440 kts 339°
2026-04-17 11:55 50.80229 133.82563 33954 ft 440 kts 339°
2026-04-17 11:55 50.86175 133.80196 33956 ft 440 kts 339°
2026-04-17 11:56 50.92113 133.77825 33957 ft 440 kts 339°
2026-04-17 11:56 50.98055 133.75449 33958 ft 440 kts 339°
2026-04-17 11:57 51.03996 133.73066 33959 ft 440 kts 339°
2026-04-17 11:57 51.09934 133.70677 33960 ft 440 kts 339°
2026-04-17 11:58 51.15828 133.68299 33960 ft 440 kts 339°
2026-04-17 11:58 51.21765 133.65898 33961 ft 440 kts 339°
2026-04-17 11:59 51.27694 133.63495 33962 ft 440 kts 339°
2026-04-17 11:59 51.33625 133.61084 33963 ft 440 kts 339°
2026-04-17 12:00 51.39554 133.58704 33967 ft 439 kts 340°
2026-04-17 12:00 51.45489 133.56355 33969 ft 439 kts 339°
2026-04-17 12:01 51.51429 133.53994 33970 ft 439 kts 339°
2026-04-17 12:01 51.57360 133.51629 33971 ft 439 kts 339°
2026-04-17 12:02 51.63290 133.49259 33971 ft 439 kts 339°
2026-04-17 12:02 51.69223 133.46882 33971 ft 440 kts 339°
2026-04-17 12:03 51.75160 133.44499 33971 ft 439 kts 339°
2026-04-17 12:03 51.81093 133.42111 33972 ft 439 kts 339°
2026-04-17 12:04 51.87028 133.39715 33972 ft 439 kts 339°
2026-04-17 12:04 51.92954 133.37315 33973 ft 439 kts 339°
2026-04-17 12:05 51.98888 133.34906 33973 ft 439 kts 339°
2026-04-17 12:05 52.04813 133.32496 33973 ft 439 kts 339°
2026-04-17 12:06 52.10747 133.30075 33973 ft 439 kts 339°
2026-04-17 12:06 52.16675 133.27650 33973 ft 439 kts 339°
2026-04-17 12:07 52.22603 133.25218 33973 ft 439 kts 339°
2026-04-17 12:07 52.28530 133.22780 33973 ft 439 kts 340°
2026-04-17 12:08 52.34462 133.20347 33978 ft 440 kts 340°
2026-04-17 12:08 52.40394 133.17895 33981 ft 440 kts 341°
2026-04-17 12:09 52.46329 133.15432 33983 ft 440 kts 341°
2026-04-17 12:09 52.52273 133.12961 33984 ft 440 kts 341°
2026-04-17 12:10 52.58216 133.10482 33986 ft 441 kts 342°
2026-04-17 12:10 52.64163 133.07988 33987 ft 441 kts 342°
2026-04-17 12:11 52.70118 133.05485 33988 ft 441 kts 342°
2026-04-17 12:12 52.79045 133.01716 33988 ft 441 kts 342°
2026-04-17 12:12 52.84997 132.99198 33987 ft 442 kts 342°
2026-04-17 12:13 52.90949 132.96672 33986 ft 442 kts 342°
2026-04-17 12:13 52.96821 132.94180 33985 ft 442 kts 342°
2026-04-17 12:14 53.02778 132.91666 33988 ft 442 kts 343°
2026-04-17 12:14 53.08688 132.89149 33995 ft 441 kts 343°
2026-04-17 12:15 53.14630 132.86585 34000 ft 441 kts 343°
2026-04-17 12:15 53.20632 132.84371 34000 ft 442 kts 347°
2026-04-17 12:16 53.26669 132.82397 34000 ft 442 kts 346°
2026-04-17 12:16 53.32706 132.80388 33998 ft 443 kts 346°
2026-04-17 12:17 53.38752 132.78377 33997 ft 442 kts 346°
2026-04-17 12:17 53.44795 132.76371 33999 ft 442 kts 346°
2026-04-17 12:18 53.50830 132.74347 34002 ft 442 kts 346°
2026-04-17 12:18 53.56868 132.72318 34004 ft 443 kts 346°
2026-04-17 12:19 53.62908 132.70294 34014 ft 442 kts 346°
2026-04-17 12:19 53.68936 132.68251 34020 ft 442 kts 345°
2026-04-17 12:20 53.74947 132.66217 34022 ft 442 kts 345°
2026-04-17 12:20 53.80985 132.64173 34022 ft 442 kts 345°
2026-04-17 12:21 53.87015 132.62125 34022 ft 442 kts 345°
2026-04-17 12:21 53.93053 132.60063 34022 ft 442 kts 345°
2026-04-17 12:22 53.99088 132.58000 34023 ft 443 kts 345°
2026-04-17 12:22 54.05129 132.55929 34023 ft 442 kts 345°
2026-04-17 12:23 54.11158 132.53856 34024 ft 442 kts 345°
2026-04-17 12:23 54.17193 132.51772 34025 ft 442 kts 345°
2026-04-17 12:24 54.23228 132.49681 34026 ft 443 kts 345°
2026-04-17 12:24 54.29264 132.47585 34032 ft 443 kts 345°
2026-04-17 12:25 54.35302 132.45482 34036 ft 443 kts 345°
2026-04-17 12:25 54.41343 132.43371 34040 ft 443 kts 345°
2026-04-17 12:26 54.47386 132.41252 34045 ft 443 kts 345°
2026-04-17 12:26 54.53394 132.39144 34054 ft 443 kts 345°
2026-04-17 12:27 54.59449 132.37004 34063 ft 444 kts 345°
2026-04-17 12:27 54.65503 132.34862 34068 ft 444 kts 345°
2026-04-17 12:28 54.71556 132.32715 34073 ft 444 kts 345°
2026-04-17 12:28 54.77610 132.30560 34078 ft 444 kts 345°
2026-04-17 12:29 54.83667 132.28397 34087 ft 444 kts 345°
2026-04-17 12:29 54.89726 132.26227 34092 ft 445 kts 345°
2026-04-17 12:30 54.95790 132.24048 34096 ft 445 kts 345°
2026-04-17 12:30 55.01855 132.21863 34098 ft 445 kts 345°
2026-04-17 12:31 55.07921 132.19670 34099 ft 445 kts 345°
2026-04-17 12:31 55.13943 132.17486 34099 ft 445 kts 345°
2026-04-17 12:32 55.20048 132.15267 34099 ft 445 kts 345°
2026-04-17 12:32 55.26072 132.13069 34097 ft 445 kts 345°
2026-04-17 12:33 55.32136 132.10852 34093 ft 445 kts 345°
2026-04-17 12:33 55.38205 132.08624 34083 ft 445 kts 345°
2026-04-17 12:34 55.44272 132.06390 34076 ft 445 kts 345°
2026-04-17 12:34 55.50338 132.04152 34069 ft 445 kts 345°
2026-04-17 12:35 55.56414 132.01901 34062 ft 446 kts 345°
2026-04-17 12:35 55.62490 131.99643 34054 ft 446 kts 345°
2026-04-17 12:37 55.86830 131.90520 34026 ft 447 kts 345°
2026-04-17 12:38 55.91888 131.88611 34025 ft 447 kts 345°
2026-04-17 12:38 55.97980 131.86303 34025 ft 447 kts 345°
2026-04-17 12:39 56.04067 131.83990 34025 ft 447 kts 345°
2026-04-17 12:39 56.11140 131.81294 34025 ft 447 kts 345°
2026-04-17 12:40 56.16237 131.79345 34024 ft 447 kts 345°
2026-04-17 12:40 56.22320 131.77012 34024 ft 447 kts 345°
2026-04-17 12:41 56.28396 131.74674 34022 ft 447 kts 345°
2026-04-17 12:41 56.34480 131.72325 34016 ft 447 kts 345°
2026-04-17 12:42 56.40558 131.69973 34012 ft 447 kts 345°
2026-04-17 12:42 56.46568 131.67639 34008 ft 447 kts 345°
2026-04-17 12:43 56.52605 131.65288 34000 ft 447 kts 346°
2026-04-17 12:43 56.58681 131.62907 33989 ft 447 kts 346°
2026-04-17 12:44 56.64755 131.60524 33983 ft 447 kts 346°
2026-04-17 12:44 56.70827 131.58134 33978 ft 446 kts 346°
2026-04-17 12:45 56.76896 131.55737 33975 ft 446 kts 346°
2026-04-17 12:45 56.82965 131.53332 33969 ft 446 kts 346°
2026-04-17 12:46 56.89024 131.50921 33966 ft 445 kts 346°
2026-04-17 12:46 56.95081 131.48505 33965 ft 446 kts 346°
2026-04-17 12:47 57.01154 131.46081 33965 ft 447 kts 346°
2026-04-17 12:47 57.07232 131.43652 33965 ft 447 kts 346°
2026-04-17 12:48 57.13318 131.41215 33964 ft 447 kts 346°
2026-04-17 12:48 57.19397 131.38773 33964 ft 447 kts 346°
2026-04-17 12:49 57.25476 131.36322 33963 ft 447 kts 346°
2026-04-17 12:49 57.31558 131.33859 33962 ft 447 kts 346°
2026-04-17 12:50 57.37641 131.31390 33960 ft 448 kts 346°
2026-04-17 12:50 57.43724 131.28913 33959 ft 448 kts 346°
2026-04-17 12:51 57.49812 131.26424 33958 ft 448 kts 346°
2026-04-17 12:51 57.55906 131.23927 33954 ft 449 kts 346°
2026-04-17 12:52 57.62013 131.21413 33952 ft 449 kts 346°
2026-04-17 12:52 57.68120 131.18889 33950 ft 449 kts 346°
2026-04-17 12:53 57.74228 131.16359 33951 ft 450 kts 346°
2026-04-17 12:53 57.80343 131.13814 33951 ft 450 kts 346°
2026-04-17 12:54 57.86456 131.11261 33950 ft 450 kts 346°
2026-04-17 12:54 57.92575 131.08698 33948 ft 450 kts 346°
2026-04-17 12:55 57.98687 131.06130 33947 ft 450 kts 346°
2026-04-17 12:55 58.04799 131.03553 33947 ft 450 kts 346°
2026-04-17 12:56 58.10907 131.00969 33947 ft 450 kts 346°
2026-04-17 12:56 58.17016 130.98374 33948 ft 450 kts 346°
2026-04-17 12:57 58.23122 130.95772 33949 ft 450 kts 346°
2026-04-17 12:57 58.29232 130.93159 33951 ft 450 kts 346°
2026-04-17 12:58 58.35343 130.90537 33952 ft 450 kts 346°
2026-04-17 12:58 58.41454 130.87904 33952 ft 450 kts 346°
2026-04-17 12:59 58.47571 130.85261 33952 ft 451 kts 346°
2026-04-17 12:59 58.53688 130.82608 33952 ft 451 kts 346°
2026-04-17 13:00 58.59800 130.79947 33953 ft 450 kts 346°
2026-04-17 13:00 58.65913 130.77276 33953 ft 450 kts 346°
2026-04-17 13:01 58.72024 130.74597 33953 ft 451 kts 346°
2026-04-17 13:01 58.78148 130.71962 33957 ft 451 kts 350°
2026-04-17 13:02 58.84422 130.71209 33950 ft 452 kts 357°
2026-04-17 13:02 58.90714 130.70775 33951 ft 452 kts 357°
2026-04-17 13:03 58.97010 130.70313 33950 ft 453 kts 357°
2026-04-17 13:03 59.03305 130.69848 33950 ft 453 kts 357°
2026-04-17 13:04 59.09597 130.69385 33950 ft 453 kts 357°
2026-04-17 13:04 59.15891 130.68920 33951 ft 453 kts 357°
2026-04-17 13:05 59.22187 130.68453 33952 ft 452 kts 357°
2026-04-17 13:05 59.28477 130.67982 33953 ft 452 kts 357°
2026-04-17 13:06 59.34733 130.67515 33955 ft 453 kts 357°
2026-04-17 13:06 59.41080 130.67039 33956 ft 454 kts 357°
2026-04-17 13:07 59.47389 130.66563 33957 ft 454 kts 357°
2026-04-17 13:07 59.53671 130.66089 33956 ft 454 kts 358°
2026-04-17 13:08 59.59989 130.65604 33956 ft 455 kts 358°
2026-04-17 13:08 59.66316 130.65121 33956 ft 455 kts 358°
2026-04-17 13:09 59.72638 130.64638 33957 ft 455 kts 358°
2026-04-17 13:09 59.78971 130.64150 33957 ft 456 kts 358°
2026-04-17 13:10 59.85306 130.63661 33957 ft 456 kts 358°
2026-04-17 13:10 59.91645 130.63169 33958 ft 456 kts 358°
2026-04-17 13:11 59.97985 130.62674 33957 ft 456 kts 358°
2026-04-17 13:11 60.04324 130.62178 33957 ft 456 kts 358°
2026-04-17 13:12 60.10660 130.61681 33957 ft 456 kts 358°
2026-04-17 13:12 60.17027 130.61181 33513 ft 461 kts 358°
2026-04-17 13:12 60.20210 130.60933 33055 ft 453 kts 358°
2026-04-17 13:13 60.23338 130.60688 32511 ft 447 kts 358°
2026-04-17 13:13 60.26426 130.60445 31963 ft 440 kts 358°
2026-04-17 13:13 60.29464 130.60207 31416 ft 434 kts 358°
2026-04-17 13:13 60.32469 130.59974 30865 ft 429 kts 358°
2026-04-17 13:14 60.35431 130.59741 30312 ft 424 kts 358°
2026-04-17 13:14 60.38358 130.59509 29758 ft 419 kts 359°
2026-04-17 13:14 60.41252 130.59285 29205 ft 414 kts 359°
2026-04-17 13:14 60.44119 130.59055 28651 ft 409 kts 359°
2026-04-17 13:15 60.46945 130.58832 28099 ft 405 kts 359°
2026-04-17 13:15 60.49742 130.58614 27548 ft 400 kts 359°
2026-04-17 13:15 60.52511 130.58382 26994 ft 396 kts 359°
2026-04-17 13:15 60.55244 130.58155 26441 ft 392 kts 359°
2026-04-17 13:16 60.57956 130.57942 25887 ft 388 kts 359°
2026-04-17 13:16 60.60638 130.57721 25334 ft 384 kts 359°
2026-04-17 13:16 60.63297 130.57508 24783 ft 381 kts 360°
2026-04-17 13:16 60.65937 130.57298 24234 ft 378 kts 360°
2026-04-17 13:17 60.68550 130.57084 23688 ft 375 kts 360°
2026-04-17 13:17 60.71143 130.56879 23145 ft 372 kts
2026-04-17 13:17 60.73718 130.56697 22610 ft 368 kts
2026-04-17 13:17 60.76200 130.57519 22091 ft 358 kts 22°
2026-04-17 13:18 60.78400 130.59752 21579 ft 352 kts 33°
2026-04-17 13:18 60.80518 130.62284 21052 ft 351 kts 34°
2026-04-17 13:18 60.82604 130.64834 20532 ft 348 kts 35°
2026-04-17 13:18 60.84652 130.67440 20012 ft 344 kts 36°
2026-04-17 13:19 60.86642 130.70117 19496 ft 341 kts 38°
2026-04-17 13:19 60.88580 130.72885 18981 ft 337 kts 39°
2026-04-17 13:19 60.90457 130.75728 18470 ft 333 kts 41°
2026-04-17 13:19 60.92250 130.78603 17969 ft 330 kts 42°
2026-04-17 13:20 60.94033 130.81628 17498 ft 325 kts 44°
2026-04-17 13:20 60.95156 130.83624 17314 ft 318 kts 45°
2026-04-17 13:20 60.97293 130.87637 16946 ft 314 kts 47°
2026-04-17 13:20 60.98864 130.90789 16677 ft 315 kts 49°
2026-04-17 13:21 61.00387 130.94021 16419 ft 314 kts 50°
2026-04-17 13:21 61.01858 130.97318 16160 ft 311 kts 52°
2026-04-17 13:21 61.02824 130.99582 15985 ft 310 kts 52°
2026-04-17 13:21 61.04206 131.02973 15728 ft 308 kts 54°
2026-04-17 13:22 61.05539 131.06426 15470 ft 307 kts 56°
2026-04-17 13:22 61.06823 131.09936 15213 ft 305 kts 57°
2026-04-17 13:22 61.08071 131.13469 14964 ft 304 kts 54°
2026-04-17 13:22 61.09620 131.16366 14729 ft 305 kts 37°
2026-04-17 13:23 61.11551 131.18180 14473 ft 307 kts 19°
2026-04-17 13:23 61.13703 131.18703 14210 ft 310 kts
2026-04-17 13:23 61.15833 131.18332 13962 ft 313 kts 355°
2026-04-17 13:23 61.18000 131.17865 13700 ft 314 kts 356°
2026-04-17 13:24 61.20176 131.17489 13446 ft 313 kts 358°
2026-04-17 13:24 61.22345 131.17236 13195 ft 312 kts 360°
2026-04-17 13:24 61.24507 131.17112 12944 ft 310 kts
2026-04-17 13:24 61.26661 131.17116 12695 ft 309 kts
2026-04-17 13:25 61.28804 131.17243 12446 ft 307 kts
2026-04-17 13:25 61.30931 131.17463 12205 ft 305 kts
2026-04-17 13:25 61.33047 131.17658 11967 ft 304 kts
2026-04-17 13:25 61.35157 131.17778 11729 ft 303 kts
2026-04-17 13:26 61.37262 131.17784 11490 ft 302 kts
2026-04-17 13:26 61.39359 131.17667 11251 ft 301 kts 359°
2026-04-17 13:26 61.41447 131.17427 11012 ft 300 kts 358°
2026-04-17 13:26 61.43523 131.17061 10775 ft 299 kts 355°
2026-04-17 13:27 61.45587 131.16569 10538 ft 298 kts 354°
2026-04-17 13:27 61.47641 131.15949 10302 ft 298 kts 352°
2026-04-17 13:27 61.49678 131.15200 10068 ft 297 kts 350°
2026-04-17 13:27 61.51694 131.14323 9870 ft 294 kts 348°
2026-04-17 13:28 61.53669 131.13334 9884 ft 292 kts 347°
2026-04-17 13:28 61.55652 131.12307 9921 ft 295 kts 347°
2026-04-17 13:28 61.57644 131.11242 9942 ft 295 kts 346°
2026-04-17 13:28 61.59626 131.10127 9954 ft 295 kts 345°
2026-04-17 13:29 61.61598 131.08927 9962 ft 295 kts 344°
2026-04-17 13:29 61.63555 131.07610 9966 ft 295 kts 342°
2026-04-17 13:29 61.65500 131.06220 9969 ft 295 kts 342°
2026-04-17 13:29 61.67441 131.04806 9970 ft 295 kts 341°
2026-04-17 13:30 61.69387 131.03405 9948 ft 296 kts 342°
2026-04-17 13:30 61.71351 131.02050 9797 ft 297 kts 343°
2026-04-17 13:30 61.73320 131.00791 9618 ft 294 kts 345°
2026-04-17 13:30 61.75292 130.99655 9436 ft 293 kts 346°
2026-04-17 13:31 61.77275 130.98640 9253 ft 292 kts 348°
2026-04-17 13:31 61.79261 130.97745 9073 ft 292 kts 349°
2026-04-17 13:31 61.81250 130.96968 8893 ft 290 kts 351°
2026-04-17 13:31 61.83241 130.96309 8714 ft 289 kts 353°
2026-04-17 13:32 61.85236 130.95763 8535 ft 288 kts 354°
2026-04-17 13:32 61.87226 130.95306 8353 ft 287 kts 355°
2026-04-17 13:32 61.89210 130.94895 8293 ft 286 kts 356°
2026-04-17 13:32 61.91191 130.94532 8144 ft 286 kts 357°
2026-04-17 13:33 61.93178 130.94262 7960 ft 285 kts 359°
2026-04-17 13:33 61.95142 130.94110 7925 ft 281 kts
2026-04-17 13:33 61.97114 130.94075 7954 ft 284 kts
2026-04-17 13:33 61.99088 130.94154 7971 ft 283 kts
2026-04-17 13:34 62.01059 130.94312 7984 ft 284 kts
2026-04-17 13:34 62.03034 130.94395 7991 ft 283 kts
2026-04-17 13:34 62.05006 130.94391 7994 ft 284 kts
2026-04-17 13:34 62.06985 130.94388 7923 ft 286 kts
2026-04-17 13:35 62.08968 130.94361 7792 ft 284 kts
2026-04-17 13:35 62.10937 130.94264 7654 ft 283 kts
2026-04-17 13:35 62.12905 130.94057 7518 ft 283 kts 358°
2026-04-17 13:35 62.14871 130.93724 7363 ft 283 kts 356°
2026-04-17 13:36 62.16829 130.93266 7194 ft 283 kts 355°
2026-04-17 13:36 62.18775 130.92681 7025 ft 282 kts 353°
2026-04-17 13:36 62.20707 130.91969 6856 ft 282 kts 351°
2026-04-17 13:36 62.22628 130.91126 6686 ft 281 kts 349°
2026-04-17 13:37 62.24483 130.89989 6448 ft 275 kts 337°
2026-04-17 13:37 62.25979 130.87552 6202 ft 269 kts 310°
2026-04-17 13:37 62.26844 130.84086 6032 ft 262 kts 287°
2026-04-17 13:37 62.27379 130.80388 5763 ft 257 kts 285°
2026-04-17 13:38 62.27869 130.76725 5481 ft 253 kts 284°
2026-04-17 13:38 62.28302 130.73083 5235 ft 249 kts 282°
2026-04-17 13:38 62.28667 130.69524 5122 ft 241 kts 280°
2026-04-17 13:38 62.28969 130.66024 4955 ft 236 kts 278°
2026-04-17 13:39 62.29208 130.62564 4771 ft 232 kts 276°
2026-04-17 13:39 62.29387 130.59140 4570 ft 229 kts 274°
2026-04-17 13:39 62.29506 130.55742 4364 ft 227 kts 272°
2026-04-17 13:39 62.29566 130.52358 4152 ft 226 kts 270°
2026-04-17 13:40 62.29569 130.49002 3938 ft 224 kts 267°
2026-04-17 13:40 62.29535 130.45982 3746 ft 223 kts 266°
2026-04-17 13:40 62.29482 130.42687 3588 ft 214 kts 266°
2026-04-17 13:40 62.29439 130.39637 3513 ft 197 kts 266°
2026-04-17 13:41 62.29418 130.36655 3400 ft 202 kts 268°
2026-04-17 13:41 62.29434 130.33657 3297 ft 199 kts 270°
2026-04-17 13:41 62.29493 130.30672 3196 ft 200 kts 272°
2026-04-17 13:41 62.29596 130.27707 3164 ft 200 kts 274°
2026-04-17 13:42 62.29740 130.24724 3106 ft 200 kts 275°
2026-04-17 13:42 62.29914 130.21783 3008 ft 194 kts 275°
2026-04-17 13:42 62.30039 130.19017 2853 ft 178 kts 269°
2026-04-17 13:42 62.29746 130.16402 2791 ft 186 kts 243°
2026-04-17 13:43 62.28916 130.14188 2743 ft 195 kts 217°
2026-04-17 13:43 62.27772 130.12603 2820 ft 199 kts 208°
2026-04-17 13:43 62.26628 130.10931 2766 ft 200 kts 213°
2026-04-17 13:43 62.25573 130.08991 2690 ft 201 kts 219°
2026-04-17 13:44 62.24605 130.06861 2648 ft 197 kts 223°
2026-04-17 13:44 62.23666 130.04766 2575 ft 193 kts 223°
2026-04-17 13:44 62.22748 130.02678 2457 ft 193 kts 225°
2026-04-17 13:44 62.21923 130.00428 2309 ft 190 kts 230°
2026-04-17 13:45 62.21142 129.98189 2171 ft 182 kts 230°
2026-04-17 13:45 62.20382 129.96175 2022 ft 174 kts 226°
2026-04-17 13:45 62.19630 129.94398 1987 ft 183 kts 224°
2026-04-17 13:46 62.19202 129.93504 1971 ft 186 kts 220°
2026-04-17 13:46 62.18205 129.91690 1918 ft 191 kts 216°
2026-04-17 13:47 62.17134 129.89946 1822 ft 188 kts 214°
2026-04-17 13:47 62.16079 129.88324 1703 ft 193 kts 214°
2026-04-17 13:47 62.14987 129.86656 1385 ft 190 kts 217°
2026-04-17 13:47 62.13952 129.85025 966 ft 179 kts 220°
2026-04-17 13:48 62.13008 129.83480 734 ft 162 kts 220°
2026-04-17 13:48 62.12147 129.82116 569 ft 146 kts 220°
2026-04-17 13:48 62.11338 129.80795 460 ft 154 kts 223°
2026-04-17 13:48 62.10478 129.79362 362 ft 151 kts 219°
2026-04-17 13:49 62.09709 129.78132 337 ft 119 kts 222°
2026-04-17 13:49 62.09196 129.77256 337 ft 77 kts 217°
2026-04-17 13:49 62.08868 129.76735 337 ft 48 kts 216°
2026-04-17 13:49 62.08620 129.76341 337 ft 39 kts 218°
2026-04-17 13:50 62.08497 129.76075 337 ft 6 kts 290°
2026-04-17 13:50 62.08528 129.76022 337 ft 8 kts 324°
2026-04-17 13:50 62.08586 129.75895 337 ft 15 kts 307°
2026-04-17 13:50 62.08647 129.75698 337 ft 15 kts 301°
2026-04-17 13:51 62.08695 129.75520 337 ft 16 kts 299°
2026-04-17 13:51 62.08745 129.75341 337 ft 12 kts 313°
2026-04-17 13:51 62.08805 129.75342 337 ft 12 kts 28°
2026-04-17 13:51 62.08872 129.75424 337 ft 11 kts 30°
2026-04-17 13:52 62.08940 129.75509 337 ft 8 kts 45°
2026-04-17 13:52 62.08943 129.75588 337 ft 0 kts 97°
2026-04-17 13:52 62.08943 129.75590 337 ft 1 kts 98°
2026-04-17 13:52 62.08938 129.75627 337 ft 0 kts 118°
2026-04-17 13:53 62.08943 129.75610 337 ft 2 kts 118°
2026-04-17 13:53 62.08951 129.75576 337 ft 3 kts 118°
2026-04-17 13:53 62.08956 129.75557 337 ft 2 kts 115°
2026-04-17 13:53 62.08944 129.75613 337 ft 0 kts 117°
2026-04-17 13:54 62.08944 129.75614 337 ft 0 kts 117°
2026-04-17 13:55 62.08943 129.75615 337 ft 0 kts 117°
2026-04-17 13:56 62.08943 129.75616 337 ft 0 kts 117°